Wind_Speed
40 39 37 35 36 36 35 35 34 33 33 32 32 31 31 31 30 29 29 28 28 28 29 29 28 29 29 29 30 30 31 31 32 33 33 33 34 35 36 36 37 38 40 41
42 41 38 38 38 38 37 36 35 35 34 34 33 32 32 31 30 30 29 29 29 29 29 29 29 29 29 29 30 31 32 32 33 34 34 35 35 36 37 38 39 41 42 42
43 42 41 41 40 39 38 37 36 36 36 36 35 34 33 32 31 31 30 30 30 30 30 30 29 30 30 30 31 32 32 33 34 35 36 36 37 38 39 40 41 43 44 45
45 44 43 42 42 41 40 38 38 38 38 38 37 36 34 33 32 31 31 31 30 31 31 31 31 31 31 32 32 33 33 34 35 36 37 38 39 40 41 42 43 44 45 46
46 45 44 44 43 42 42 40 40 40 40 40 39 39 35 35 34 32 32 32 31 32 32 32 32 32 33 34 34 34 35 35 36 37 38 40 41 41 43 44 45 46 47 47
47 47 47 45 44 44 43 42 42 42 42 43 40 40 38 36 34 33 33 33 33 33 33 33 34 34 35 35 35 36 36 37 37 38 40 41 42 43 45 46 47 48 48 49
46 48 48 47 46 46 45 44 43 44 45 45 41 42 40 37 35 35 35 35 35 35 35 35 34 35 35 36 36 37 37 38 39 40 41 43 44 45 47 48 49 50 51 51
45 47 48 48 47 46 45 45 45 45 46 45 44 43 41 39 37 36 36 36 36 36 36 36 36 36 36 37 38 38 39 39 41 42 43 44 45 46 48 50 51 52 53 54
43 45 46 47 48 47 47 47 46 46 46 46 46 44 42 40 38 38 37 37 37 37 37 37 37 38 38 39 39 39 40 41 41 42 44 45 46 48 49 51 53 54 54 55
43 43 43 45 47 48 48 46 46 46 47 46 47 45 43 41 39 39 38 39 39 39 39 39 39 39 39 40 41 41 42 42 43 44 45 46 47 49 51 52 54 54 55 57
43 43 43 43 45 45 46 47 47 47 48 47 47 46 43 42 41 40 40 40 39 39 39 39 40 40 41 41 42 43 43 44 45 46 47 48 49 51 52 53 55 56 57 58
42 43 44 44 44 44 45 46 47 47 47 47 47 47 44 43 42 41 40 40 40 40 41 41 41 41 41 42 43 44 45 45 47 48 49 50 52 53 53 54 55 57 58 59
42 44 44 44 45 45 45 45 46 46 47 47 46 47 45 44 42 41 41 41 41 41 41 41 42 42 42 43 44 45 46 47 48 50 51 52 53 54 55 55 56 57 58 58
43 44 44 44 44 44 44 44 45 46 47 46 46 44 43 43 43 43 42 41 41 41 41 41 42 43 43 44 45 46 48 49 51 52 53 54 54 55 55 56 56 57 57 57
40 42 44 44 44 43 43 43 44 46 46 46 44 43 42 43 43 43 43 42 42 42 42 42 43 44 44 45 46 48 49 51 52 52 53 54 54 55 56 56 56 57 56 56
38 39 42 44 44 44 44 43 43 44 45 46 45 45 43 43 43 43 43 44 44 44 44 44 44 45 46 47 48 49 50 51 51 52 52 53 54 55 55 56 56 55 55 55
36 37 39 41 43 44 45 43 43 43 43 44 45 44 44 44 44 44 44 44 45 45 45 45 46 46 47 48 49 50 50 50 51 52 52 53 54 54 55 55 54 54 53 53
35 36 37 39 41 43 44 43 42 43 43 43 44 44 45 46 46 46 46 46 46 47 47 47 47 48 48 49 50 50 50 51 51 52 52 53 53 54 53 53 52 52 51 51
35 35 36 37 39 41 42 41 41 42 43 43 44 45 46 47 47 47 46 46 47 47 47 47 48 48 48 49 49 49 50 51 51 51 52 52 52 52 51 51 50 49 48 48
33 34 34 35 36 38 38 39 39 41 42 42 43 44 44 45 46 45 45 45 45 46 46 46 47 47 48 48 49 49 49 49 50 50 51 50 49 48 48 47 47 46 45 44
32 32 33 33 34 35 35 36 37 38 39 40 41 41 42 43 43 44 44 44 44 44 45 45 46 46 46 47 47 48 49 49 49 49 48 47 46 46 45 44 44 43 42 41
29 30 31 31 32 32 33 34 35 36 36 37 37 38 39 40 40 41 42 42 43 43 44 44 44 44 45 46 46 47 47 47 47 47 46 45 44 44 43 42 41 40 39 39
28 29 29 31 31 31 31 33 34 35 36 36 36 36 36 37 38 39 40 41 42 42 43 43 43 43 44 45 45 45 45 45 45 44 44 43 42 41 40 39 38 38 38 38
26 27 28 29 29 30 31 31 32 33 34 34 35 35 35 35 36 38 39 39 40 40 41 41 42 42 42 43 43 43 43 43 43 43 42 40 39 38 38 37 37 36 36 36
26 27 28 28 29 29 30 30 30 31 32 32 33 33 33 34 35 36 36 37 37 38 39 39 40 40 41 41 41 42 42 42 41 40 39 38 38 38 37 37 36 36 35 34
25 26 26 26 27 27 27 28 29 30 30 30 31 32 32 33 33 34 34 35 36 37 37 38 38 39 40 40 40 40 39 39 38 38 37 38 37 37 36 35 35 34 33 31
Wind_Direction
232 233 233 234 235 235 235 236 237 238 238 238 238 237 238 239 240 241 243 245 246 247 249 250 251 253 254 256 258 259 260 262 263 264 265 266 268 270 272 273 275 277 279 279
232 233 233 234 235 236 236 237 238 239 240 240 239 238 240 241 242 243 245 246 247 248 250 252 253 255 257 259 260 261 262 263 264 265 267 268 270 272 273 275 276 278 280 280
233 233 233 234 235 236 237 237 238 240 241 241 241 240 240 242 242 243 245 247 249 250 252 253 255 256 258 260 262 263 264 265 266 267 269 270 271 273 275 276 278 280 281 282
232 232 232 234 235 236 237 238 239 240 241 242 242 242 240 243 243 244 246 248 250 252 253 255 256 258 259 261 262 264 266 267 268 270 271 271 272 274 276 278 280 281 282 282
233 233 233 234 235 236 238 238 239 241 242 243 242 245 241 243 245 246 247 248 250 253 254 256 258 259 260 262 263 265 267 269 270 272 273 273 274 275 277 279 281 282 283 283
234 233 233 233 234 236 237 238 240 241 243 244 243 246 244 243 246 248 249 250 251 253 255 257 258 260 261 263 265 267 269 270 272 274 274 275 276 277 279 281 282 283 283 283
234 234 234 233 234 235 237 238 240 242 243 245 245 247 247 245 246 248 250 252 253 254 256 257 259 261 263 265 266 268 270 271 273 275 276 277 278 279 280 281 282 283 284 284
235 235 235 235 235 236 237 238 240 243 245 246 246 247 248 248 248 249 251 253 254 255 257 258 260 262 264 265 267 269 270 272 274 276 277 278 279 280 281 282 283 284 285 285
235 236 235 235 235 236 236 237 239 243 245 248 248 248 249 250 250 251 252 253 255 256 257 258 260 262 264 266 268 269 271 273 275 277 278 279 280 281 283 284 285 286 287 287
234 235 235 235 235 236 237 238 239 241 244 247 249 250 251 251 252 253 254 255 256 257 258 260 261 262 264 266 268 270 272 274 275 277 279 280 282 283 284 285 286 287 287 287
233 235 235 235 235 236 237 238 239 241 243 246 249 251 252 254 254 255 255 256 257 258 259 261 262 264 265 267 268 270 272 274 275 277 279 281 282 284 285 286 287 287 288 289
232 234 235 236 236 236 237 238 239 241 244 246 249 252 253 255 256 257 257 258 258 259 261 262 263 265 266 267 269 270 272 274 276 278 280 282 284 285 286 287 288 288 289 289
231 233 235 235 235 235 237 238 240 241 244 246 247 251 252 255 256 257 258 258 259 260 262 263 264 265 267 268 269 271 272 274 276 278 281 283 285 286 287 288 289 289 289 289
232 233 235 237 238 238 239 239 240 240 242 244 246 250 252 254 256 257 258 259 260 261 262 263 264 265 267 269 270 272 274 275 277 279 281 283 285 286 287 288 289 290 290 290
234 236 236 237 238 238 239 239 240 241 243 245 246 248 250 252 255 257 258 258 259 260 261 263 264 266 268 270 272 274 276 277 279 280 282 283 285 286 287 288 290 291 291 291
235 237 238 238 239 240 239 239 240 242 243 245 246 247 249 252 254 256 257 259 259 260 262 264 266 268 269 271 273 275 277 278 280 281 282 283 285 286 288 289 290 290 290 291
237 238 239 240 241 242 242 241 243 243 244 245 247 248 250 252 254 256 258 259 260 261 263 266 267 269 270 272 275 276 278 279 281 282 283 285 286 286 288 289 289 290 290 291
239 240 241 241 242 243 244 243 245 245 245 246 247 249 251 253 255 257 258 260 262 263 264 266 268 269 271 273 276 277 278 280 282 283 284 285 286 287 288 289 289 289 290 290
237 239 241 242 243 245 244 245 246 247 248 248 250 252 253 255 257 259 261 262 263 264 265 267 268 270 272 275 276 277 279 281 283 285 286 286 287 288 288 289 289 290 290 291
237 238 238 240 242 244 246 246 247 248 250 250 252 254 255 257 259 260 261 263 264 265 266 268 270 272 273 276 277 278 280 282 284 286 287 287 287 287 288 288 289 290 290 290
237 237 238 239 242 243 244 246 247 249 251 251 253 255 256 258 259 261 262 263 265 266 267 269 271 273 275 276 278 278 280 282 284 285 286 287 286 286 287 287 288 288 289 289
239 240 240 240 242 243 243 245 247 250 251 253 255 256 257 259 260 261 262 264 266 268 269 271 272 274 276 277 279 279 280 281 283 284 285 285 285 285 286 286 287 287 288 289
240 242 244 244 246 247 247 248 250 251 253 255 256 257 258 259 260 261 262 264 267 269 270 271 272 275 277 278 280 280 281 282 283 283 283 283 284 284 284 285 286 287 288 289
241 242 245 247 247 248 249 250 251 253 254 256 257 257 259 260 261 262 264 265 266 268 270 271 273 275 276 278 279 279 280 281 282 283 282 281 282 283 283 285 287 287 288 289
240 243 246 249 249 249 251 253 255 256 256 256 257 259 260 262 262 263 264 265 266 268 269 271 272 274 276 278 280 280 280 281 282 282 281 280 281 282 282 284 286 287 288 288
242 245 247 248 249 251 253 255 256 256 256 257 258 259 261 262 263 263 264 265 266 268 269 271 273 275 277 279 280 281 281 282 282 282 281 281 281 280 281 282 284 285 286 286
Height
5691 5696 5701 5706 5708 5711 5714 5717 5720 5723 5725 5728 5730 5733 5735 5737 5739 5742 5744 5746 5747 5748 5749 5750 5751 5752 5753 5754 5755 5755 5755 5756 5756 5756 5756 5757 5756 5756 5755 5754 5753 5751 5750 5748
5682 5688 5693 5695 5698 5702 5706 5709 5713 5715 5717 5720 5723 5726 5728 5730 5733 5735 5737 5739 5740 5741 5742 5744 5745 5746 5746 5747 5747 5748 5748 5748 5748 5748 5748 5748 5748 5747 5746 5745 5744 5742 5740 5738
5673 5679 5682 5686 5690 5693 5697 5702 5705 5707 5709 5711 5715 5718 5721 5723 5726 5728 5730 5732 5733 5734 5735 5736 5738 5739 5739 5740 5740 5740 5740 5740 5740 5739 5739 5739 5739 5738 5737 5736 5734 5732 5730 5727
5661 5667 5672 5676 5681 5685 5689 5693 5695 5698 5700 5703 5707 5709 5714 5716 5718 5721 5723 5724 5726 5727 5728 5729 5730 5731 5732 5732 5732 5732 5732 5731 5731 5731 5730 5730 5729 5728 5727 5726 5724 5721 5719 5716
5651 5657 5662 5666 5672 5675 5679 5683 5686 5689 5691 5694 5698 5700 5706 5708 5710 5713 5715 5717 5718 5719 5720 5721 5722 5723 5723 5723 5724 5723 5723 5723 5722 5722 5721 5720 5719 5718 5717 5715 5713 5710 5708 5705
5640 5646 5650 5656 5661 5665 5669 5673 5676 5678 5680 5684 5690 5691 5696 5700 5703 5705 5707 5709 5710 5711 5712 5713 5714 5714 5715 5715 5715 5715 5715 5714 5713 5712 5711 5710 5709 5708 5706 5704 5701 5699 5696 5693
5629 5634 5639 5645 5650 5654 5659 5664 5667 5668 5670 5675 5680 5681 5687 5692 5695 5696 5698 5700 5701 5702 5703 5704 5705 5706 5706 5707 5707 5706 5705 5705 5704 5703 5701 5700 5699 5697 5695 5692 5689 5687 5684 5680
5619 5624 5629 5634 5640 5645 5649 5653 5658 5660 5662 5666 5669 5671 5678 5682 5684 5687 5689 5690 5692 5693 5694 5695 5696 5697 5697 5697 5697 5696 5696 5695 5694 5692 5691 5689 5687 5685 5683 5680 5677 5674 5670 5667
5608 5613 5618 5623 5629 5634 5637 5641 5647 5650 5651 5655 5657 5662 5667 5671 5674 5677 5679 5680 5682 5683 5684 5685 5686 5687 5687 5687 5687 5686 5686 5685 5683 5682 5680 5678 5676 5673 5671 5668 5664 5660 5656 5652
5597 5602 5607 5612 5617 5621 5627 5631 5636 5638 5641 5644 5648 5652 5657 5661 5663 5666 5668 5670 5671 5673 5674 5675 5676 5676 5677 5677 5676 5676 5675 5674 5672 5671 5669 5667 5664 5661 5658 5655 5651 5647 5643 5638
5587 5592 5597 5601 5606 5612 5617 5621 5624 5628 5631 5636 5639 5644 5647 5650 5653 5655 5657 5659 5661 5662 5663 5664 5665 5666 5666 5666 5665 5665 5664 5662 5661 5659 5657 5655 5652 5649 5645 5641 5637 5633 5629 5624
5577 5581 5586 5591 5596 5600 5605 5610 5614 5619 5622 5626 5630 5635 5636 5639 5641 5644 5646 5648 5650 5651 5652 5653 5654 5655 5655 5655 5654 5653 5652 5651 5649 5647 5645 5642 5639 5636 5632 5628 5623 5619 5614 5609
5566 5571 5575 5580 5586 5590 5594 5599 5603 5608 5611 5614 5619 5625 5625 5628 5630 5633 5635 5637 5638 5640 5641 5642 5643 5643 5643 5643 5642 5641 5640 5638 5636 5634 5632 5629 5626 5622 5618 5614 5610 5605 5600 5595
5556 5561 5567 5572 5576 5581 5585 5589 5593 5596 5600 5604 5609 5613 5616 5617 5619 5621 5623 5625 5627 5628 5630 5631 5631 5631 5631 5631 5630 5629 5627 5625 5623 5621 5618 5615 5612 5608 5604 5600 5595 5591 5586 5581
5546 5551 5556 5561 5565 5570 5574 5578 5582 5585 5590 5594 5599 5602 5604 5605 5607 5609 5612 5613 5615 5616 5618 5619 5619 5619 5619 5618 5617 5616 5614 5612 5609 5607 5604 5601 5598 5594 5590 5585 5581 5576 5571 5567
5537 5542 5546 5550 5555 5558 5562 5567 5570 5574 5578 5582 5586 5590 5593 5594 5596 5598 5600 5602 5603 5605 5606 5606 5607 5607 5606 5605 5604 5603 5601 5598 5595 5593 5590 5587 5584 5580 5576 5571 5567 5562 5558 5553
5528 5533 5537 5541 5545 5547 5551 5558 5561 5565 5568 5571 5574 5580 5581 5583 5585 5587 5588 5590 5591 5592 5593 5594 5594 5594 5593 5592 5591 5589 5587 5585 5582 5579 5576 5573 5569 5566 5562 5557 5553 5548 5544 5539
5520 5523 5527 5530 5534 5537 5544 5547 5551 5554 5557 5560 5563 5566 5569 5571 5573 5575 5577 5578 5579 5580 5581 5581 5581 5580 5580 5579 5577 5575 5573 5571 5568 5565 5562 5559 5555 5552 5548 5544 5539 5535 5531 5526
5511 5515 5518 5521 5523 5526 5532 5537 5540 5543 5546 5549 5552 5555 5557 5559 5561 5563 5564 5565 5567 5567 5567 5567 5567 5567 5566 5565 5563 5561 5559 5556 5554 5551 5548 5544 5541 5537 5534 5530 5526 5522 5518 5514
5502 5506 5510 5512 5514 5518 5523 5527 5529 5532 5535 5538 5541 5543 5545 5547 5549 5552 5552 5553 5553 5554 5554 5554 5554 5553 5552 5551 5549 5547 5545 5543 5540 5537 5534 5530 5527 5523 5520 5517 5513 5510 5506 5502
5494 5497 5500 5503 5505 5508 5513 5515 5518 5523 5525 5527 5529 5532 5534 5536 5538 5539 5540 5540 5541 5541 5541 5541 5540 5540 5539 5537 5535 5533 5531 5529 5526 5523 5520 5517 5514 5511 5508 5505 5502 5498 5495 5492
5486 5489 5492 5494 5497 5502 5503 5506 5509 5510 5513 5516 5518 5520 5522 5524 5525 5526 5527 5528 5528 5528 5528 5528 5527 5527 5525 5524 5522 5520 5518 5516 5513 5511 5508 5505 5502 5499 5496 5494 5491 5487 5484 5481
5479 5482 5484 5487 5491 5492 5494 5496 5498 5501 5503 5505 5507 5510 5511 5513 5514 5515 5515 5516 5516 5516 5516 5515 5515 5514 5512 5511 5509 5507 5505 5503 5501 5498 5496 5493 5490 5488 5485 5483 5480 5477 5474 5471
5471 5473 5475 5478 5481 5483 5485 5486 5489 5491 5493 5495 5497 5499 5500 5502 5503 5503 5504 5504 5504 5504 5504 5503 5503 5502 5500 5498 5496 5494 5492 5490 5488 5486 5484 5482 5480 5477 5475 5473 5470 5467 5464 5461
5463 5465 5467 5469 5472 5474 5476 5478 5480 5482 5483 5485 5487 5489 5490 5491 5492 5492 5492 5493 5493 5493 5492 5491 5491 5489 5488 5486 5484 5482 5480 5478 5476 5474 5473 5471 5469 5467 5465 5462 5460 5457 5455 5451
5456 5458 5460 5462 5464 5466 5468 5470 5471 5473 5474 5476 5477 5478 5479 5480 5481 5481 5481 5482 5481 5481 5480 5480 5479 5477 5476 5474 5472 5470 5468 5467 5465 5464 5462 5460 5458 5456 5454 5453 5450 5448 5445 5443